Hai Yang 4-01

operational
NORAD ID: 61936 Int'l Des: 2024-208 Owner: GYZ/CASC Country: CN
LEOCIRCULARRETROGRADESSO

Hai Yang 4-01について

説明を読み込み中...

リアルタイム位置

3D地球を読み込み中...

次回通過

高度履歴

Altitude vs Time

uPlot chart will show altitude changes over time

軌道要素

1 61936U 24208A 26071.00479483 .00000661 00000-0 10992-3 0 9999
2 61936 98.0072 80.0782 0002526 107.7079 252.4405 14.73272119 71135
Epoch: Mar 12, 2026 • Age: 22 hours

現在のステータス

高度 659.6 km
速度 7.53 km/s
衛星直下点 62.36°N, 138.43°E
打ち上げ日 Nov 13, 2024
運用期間 1.3 years
タイプ other

技術仕様

分類 Payload
質量 1500.00 kg
乾燥質量 1500.00 kg
総質量 1500.00 kg
長さ 1.00 m
直径 1.00 m
スパン 4.00 m
形状 Box + 2 Pan
製造者 CAST
バスタイプ CAST-968
フェーズステータス In Orbit
所有者/国 GYZ/CASC/CN

大規模コンステレーション

Loading constellations...